STARLINK-5064, 55428

Orbit data source: Space-Track

STARLINK-5064, 55428 is a payload satellite owned by SpaceX/Seattle (US) in LEO that was launched on Tue, 31 Jan 2023 UTC via an FALCON 9 launch vehicle from the Air Force Western Test Range (AFWTR). Payload-class satellites include a variety of spacecraft equipped with specific instruments for various scientific and technological missions. These include communications satellites like Starlink; space stations such as the ISS; scientific satellites like the Hubble; Earth observation satellites from companies like Planet Labs, Umbra, and HawkEye 360; GPS; miniature CubeSats for education and research; and military/defense satellites.

Loading next visibility...
Identifier
55428, 2023-014AP
Orbit
LEO
Country
Flag of USUS
Related business
Manufacturer
SpaceX/Seattle
Mission
Operational Commercial Communications
Bus & Motor
STARLINK, Unknown motor
Mass
305 kg wet, ~290 kg dry
Launch date (UTC)
2023-01-31 (3 years ago)
Launch vehicle
FALCON 9
Launch site
Air Force Western Test Range (AFWTR)
Object type
Payload
Rocket body
Debris
Shape & HBR
Box + 1 Pan, 10.1 m
Radar Cross Section
13.562 m², Large (>1 m²)

Expand to show TLE details & history
Last TLE update: 2 days ago

TLE from 2 days ago
0 STARLINK-5064
1 55428U 23014AP  26171.40716456  .00000295  00000-0  32510-4 0  9995
2 55428  69.9989 185.6530 0003889 265.7895  94.2820 14.98331721186946
Epoch: 2026-06-20T09:46Z
TLE epoch observation values (Epoch: 2026-06-20T09:46:19.017Z)
Latitude
-0.00002°
Longitude
130.45152°
Altitude
574.677 km
Speed
7.574 km/s
True Right ascension
12h 22m 36s
True Declination
0° 00' 00"
Sunlit
Object was in daylight at epoch
Visualization orbit readout
Latitude
Unknown
Longitude
Unknown
Altitude
Unknown
Speed
Unknown
Apparent Right ascension
Unknown
Apparent Declination
Unknown
Sunlit
N/A
Visualization observer readout
Local Sidereal Time
21:24:10
Azimuth
Unknown
Elevation
Unknown
Doppler factor
Unknown
Orbital elements
Apogee altitude
572.701 km
Perigee altitude
567.297 km
Semi-major axis
6,948.136 km
Eccentricity
0.00039
Inclination
69.9989°
RAAN
185.653°
Arg. of periapsis
265.7895°
True anomaly
94.32644°
Mean anomaly
94.282°
Eccentric anomaly
94.30422°
Mean motion
3.74749 °/min
Orbital period
96.06 mins
BSTAR
0.00003251
Loading maneuver chart data...
Computing Atmospheric mass density...

Documentation

Showing up to 5 results
|